sat.trackr.live / text

‹ back to catalog

STARLINK-37614

NORAD 69041 · 2026-101S

PAYLOAD ACTIVE UNKNOWN

§ Identity

Operator
Country
US
Launch date
2026-05-06
Launch site
AFWTR
Launch vehicle
Mass (kg)
RCS (m²)

Purposes: comms

External: N2YO · Heavens-Above · Gunter

§ Orbital elements

Epoch: 2026-05-25T04:50:20.069088Z

Period
91.57 min
Inclination
97.2846°
Eccentricity
0.0001917
Mean motion
15.72579268 rev/d
Perigee alt
350.2 km
Apogee alt
352.8 km
Semi-major
6,729.7 km
B*
-3.3446e-3
RAAN
359.9790°
Arg perigee
299.1978°
Mean anomaly
60.9094°
Rev number
302

§ Raw data

STARLINK-376141 69041U 26101S   26145.20162117 -.00424713  00000+0 -33446-2 0  99922 69041  97.2846 359.9790 0001917 299.1978  60.9094 15.72579268  3028

JSON: /api/v1/satellites/69041 · /tle

For live sub-satellite position, see the globe view (requires WebGL).

§ Visibility from observer

Set your observer location to see the next 7 days of passes ≥ 10°. The values pass through the URL so the page stays shareable.

No JS? Fill the form by hand. The geolocation button needs JavaScript.